Weather History for Windsor Locks, CT

Change the Weather History Date:

Tuesday, January 15, 2013

  Actual Average Record
Temperature  
Mean Temperature 35 °F 26 °F  
Max Temperature 39 °F 34 °F 63 °F (1995)
Min Temperature 30 °F 17 °F -15 °F (1957)
Degree Days  
Heating Degree Days 30 39  
Month to date heating degree days 500 582  
Since 1 July heating degree days 2539 2826  
Cooling Degree Days 0 0  
Month to date cooling degree days 0 0  
Year to date cooling degree days 0 0  
Moisture  
Dew Point 23 °F    
Average Humidity 60    
Maximum Humidity 72    
Minimum Humidity 48    
Precipitation  
Precipitation T in 0.11 in 1.78 in (1940)
Month to date precipitation 0.32 1.54  
Year to date precipitation 0.32 1.54  
Snow  
Snow 0.00 in 0.40 in 6.80 in (1983)
Month to date snowfall 0.2 5.9  
Since 1 July snowfall 16.0 15.3  
Snow Depth 0.00 in    
Sea Level Pressure  
Sea Level Pressure 30.28 in    
Wind  
Wind Speed 5 mph (NNW)    
Max Wind Speed 12 mph    
Max Gust Speed 15 mph    
Visibility 10 miles    
Events Rain    
T = Trace of Precipitation, MM = Missing Value Source: NWS Daily Summary

Daily Weather History Graph

Daily Weather History Graph

Search for Another Location

Airport:

Trip Planner

Search our weather history database for the weather conditions in past years. The results will help you decide how hot, cold, wet, or windy it might be!

Date:

Astronomy

Jan. 15, 2013 Rise Set
Actual Time 7:15 AM EST 4:44 PM EST
Civil Twilight 6:45 AM EST 5:15 PM EST
Nautical Twilight 6:10 AM EST 5:50 PM EST
Astronomical Twilight 5:37 AM EST 6:23 PM EST
Moon 9:15 AM EST (1/15) 9:37 PM EST (1/15)
Length of Visible Light 10h 30m
Length of Day
9h 28m
Waxing Crescent, 19% of the Moon is Illuminated
Jan 15
Waxing Crescent
Jan 18
First Quarter
Jan 26
Full
Feb 3
Last Quarter
Feb 10
New

Hourly Weather History & Observations

Time (EST) Temp. Windchill Dew Point Humidity Pressure Visibility Wind Dir Wind Speed Gust Speed Precip Events Conditions
12:51 AM 37.0 °F 32.4 °F 24.1 °F 59% 30.27 in 10.0 mi NW 5.8 mph - N/A   Overcast
1:51 AM 35.1 °F 28.6 °F 26.1 °F 70% 30.26 in 10.0 mi NNE 8.1 mph - 0.00 in Rain Light Rain
2:51 AM 35.1 °F 31.0 °F 25.0 °F 67% 30.26 in 10.0 mi NW 4.6 mph - 0.00 in   Mostly Cloudy
3:51 AM 35.1 °F 32.2 °F 25.0 °F 67% 30.24 in 10.0 mi NNW 3.5 mph - N/A   Overcast
4:51 AM 34.0 °F 28.8 °F 24.1 °F 67% 30.24 in 10.0 mi NNW 5.8 mph - N/A   Mostly Cloudy
5:51 AM 32.0 °F 27.5 °F 24.1 °F 73% 30.25 in 10.0 mi NNW 4.6 mph - N/A   Mostly Cloudy
6:51 AM 30.9 °F 27.5 °F 23.0 °F 72% 30.29 in 10.0 mi NNW 3.5 mph - N/A   Mostly Cloudy
7:51 AM 30.0 °F 25.2 °F 23.0 °F 75% 30.31 in 10.0 mi North 4.6 mph - N/A   Mostly Cloudy
8:51 AM 35.1 °F 29.3 °F 23.0 °F 61% 30.33 in 10.0 mi NNW 6.9 mph - N/A   Mostly Cloudy
9:51 AM 36.0 °F 29.6 °F 23.0 °F 59% 30.35 in 10.0 mi North 8.1 mph - N/A   Mostly Cloudy
10:51 AM 36.0 °F 32.1 °F 23.0 °F 59% 30.31 in 10.0 mi North 4.6 mph - N/A   Mostly Cloudy
11:51 AM 37.0 °F 31.6 °F 21.9 °F 54% 30.30 in 10.0 mi NNW 6.9 mph - N/A   Overcast
12:51 PM 37.9 °F 35.5 °F 21.9 °F 53% 30.29 in 10.0 mi NW 3.5 mph - N/A   Overcast
1:51 PM 39.0 °F 34.8 °F 21.9 °F 50% 30.27 in 10.0 mi NNE 5.8 mph - N/A   Mostly Cloudy
2:51 PM 39.0 °F 36.8 °F 21.0 °F 49% 30.27 in 10.0 mi North 3.5 mph - N/A   Overcast
3:51 PM 37.4 °F - 21.2 °F 52% 30.26 in 10.0 mi Calm Calm - N/A   Overcast
4:51 PM 37.0 °F - 21.9 °F 54% 30.28 in 10.0 mi Calm Calm - N/A   Overcast
5:51 PM 36.0 °F 33.3 °F 21.9 °F 57% 30.27 in 10.0 mi WNW 3.5 mph - N/A   Overcast
6:51 PM 35.1 °F 30.1 °F 21.9 °F 59% 30.29 in 10.0 mi NNW 5.8 mph - N/A   Overcast
7:51 PM 35.1 °F 30.1 °F 21.9 °F 59% 30.28 in 10.0 mi North 5.8 mph - N/A   Overcast
8:51 PM 34.0 °F 28.8 °F 21.9 °F 61% 30.27 in 10.0 mi North 5.8 mph - N/A   Overcast
9:51 PM 33.1 °F - 23.0 °F 66% 30.25 in 10.0 mi Calm Calm - N/A   Overcast
10:51 PM 33.1 °F 30.0 °F 21.9 °F 64% 30.25 in 10.0 mi NNW 3.5 mph - N/A   Overcast
11:51 PM 33.1 °F 30.0 °F 23.0 °F 66% 30.25 in 10.0 mi WNW 3.5 mph - N/A   Overcast